Wind_Speed
21 21 21 20 20 19 18 17 15 14 13 12 10 9 8 8 7 6 6 5 5 5 5 5 6 7 8 9 9 10 11 12 12 13 13 13 13 13 13 12 12 12 12 12 12 12 13 13 14 14 14 14 14 14 13 13 12 12 12 12 12 12 13 13 13 13 13 13 13
22 22 21 21 20 19 18 17 15 14 12 11 10 9 9 8 7 6 5 5 5 5 5 6 6 7 8 9 10 11 12 12 13 13 13 13 13 12 12 12 12 12 12 12 13 13 13 14 14 14 14 14 14 13 13 13 12 12 12 12 12 13 13 14 14 14 14 13 13
23 23 22 21 20 19 18 17 15 14 12 11 10 9 9 8 7 6 5 5 5 5 5 6 7 8 9 10 11 12 12 12 12 12 13 12 12 12 12 12 12 12 12 13 13 13 14 14 14 14 14 14 14 13 13 13 13 13 13 13 13 14 14 14 14 14 14 14 14
24 23 22 21 20 19 18 17 15 14 12 12 11 10 9 8 7 6 5 5 5 5 6 7 8 9 10 10 11 12 12 12 12 12 12 12 12 12 13 13 13 13 13 13 13 14 14 14 14 14 14 14 14 13 13 13 13 13 13 14 14 14 14 15 15 15 15 15 15
24 23 22 21 19 18 17 16 14 14 13 12 11 10 8 7 6 5 5 5 5 6 7 8 9 10 10 11 11 11 11 11 11 12 12 12 12 13 13 13 13 13 14 14 14 14 14 14 14 14 14 14 13 13 13 14 14 14 14 14 14 15 15 15 15 15 15 15 15
24 22 21 20 19 18 16 15 14 13 13 12 10 9 8 7 6 5 5 5 6 7 8 9 9 10 10 10 10 10 10 11 11 12 12 12 12 13 13 13 13 13 14 14 14 14 14 14 14 14 14 14 14 14 14 14 14 14 15 15 15 15 15 15 16 16 16 16 16
23 22 21 20 19 17 16 15 14 13 12 11 10 9 8 7 6 5 5 6 7 8 8 9 9 10 10 10 10 10 10 10 11 11 12 12 12 13 13 13 13 14 14 14 14 14 14 14 14 14 14 14 14 14 14 14 15 15 15 16 16 16 16 16 16 16 16 16 16
23 22 21 20 18 17 16 15 14 13 12 11 10 9 8 6 6 6 6 7 8 8 9 9 9 9 9 10 10 10 10 11 11 11 12 12 12 13 13 13 14 14 14 14 14 14 14 14 14 14 14 14 14 14 15 15 15 15 16 16 16 16 16 16 16 16 16 16 16
23 22 21 19 18 17 16 15 14 13 12 11 10 8 7 6 6 6 7 8 8 8 8 8 8 9 9 9 9 10 10 11 11 11 12 12 13 13 13 14 14 14 13 13 13 14 14 14 14 14 14 15 15 15 15 15 15 16 16 17 17 17 17 16 16 16 15 16 16
23 22 20 19 18 17 16 15 14 13 12 11 10 8 7 6 6 6 7 7 7 8 8 8 8 8 8 8 9 9 10 10 11 11 12 12 13 13 13 14 14 14 13 13 13 13 14 14 14 14 15 15 15 15 15 16 16 17 17 17 17 17 17 16 15 15 15 16 16
23 22 21 19 18 17 16 15 14 13 11 10 9 8 7 6 6 6 6 6 7 7 7 7 7 7 7 8 8 9 9 10 11 11 12 12 13 13 13 14 14 13 13 13 13 14 14 14 15 15 15 15 15 16 16 16 17 17 17 17 17 17 17 16 15 15 15 16 17
23 22 20 19 18 17 16 15 14 12 11 9 8 7 6 6 6 6 6 6 6 6 6 6 6 6 6 7 8 9 9 10 11 11 12 13 13 13 13 13 13 13 13 13 13 14 14 15 15 16 16 16 16 16 16 17 17 17 17 17 17 17 17 16 16 15 16 16 18
23 22 20 19 18 16 15 14 13 12 10 9 7 6 6 5 5 5 5 5 5 4 4 5 5 5 6 7 8 8 9 10 11 12 12 13 13 13 14 13 13 13 13 13 14 14 14 15 15 16 17 17 17 17 17 17 17 17 17 17 17 17 17 17 17 17 17 18 18
23 21 20 19 17 16 15 14 12 11 9 8 7 6 5 5 5 4 4 4 4 3 3 4 4 5 6 7 8 9 10 11 12 12 13 13 13 14 13 13 13 13 13 13 14 14 15 15 16 16 17 18 18 18 17 17 17 17 17 17 17 17 18 18 18 18 18 19 20
22 21 20 19 18 16 15 13 11 10 8 7 6 6 5 5 4 4 3 3 3 3 3 3 4 5 6 7 8 9 10 11 12 13 13 13 14 14 14 13 13 13 14 14 14 14 15 15 16 17 17 18 18 18 18 17 17 17 17 17 17 18 19 19 19 19 20 20 21
22 21 20 19 17 16 14 12 11 9 8 7 6 5 5 5 4 3 3 2 2 3 3 4 5 6 7 8 9 10 11 12 12 13 14 14 14 14 14 14 14 14 14 14 15 15 15 16 16 17 18 18 18 18 18 17 17 17 17 17 18 19 19 20 20 20 21 21 22
22 21 20 18 17 15 13 11 10 9 8 7 6 6 5 4 3 3 2 2 2 3 4 5 6 7 7 8 9 10 11 12 13 13 14 14 14 14 14 14 14 14 15 15 16 16 16 16 17 17 18 18 18 18 17 17 17 17 18 18 19 20 20 21 21 21 22 22 22
23 21 19 17 15 14 12 11 10 9 8 7 6 6 5 4 3 2 2 2 3 4 5 6 7 7 8 9 10 11 12 13 13 14 14 14 14 14 14 14 14 14 15 15 16 17 17 17 18 18 18 18 18 17 17 17 18 18 19 20 20 21 21 22 22 22 22 23 23
22 21 18 16 15 13 12 11 10 9 8 7 6 5 4 3 3 2 2 3 4 5 6 7 7 8 9 10 11 11 12 13 14 14 14 14 14 14 14 14 15 15 15 16 17 17 18 18 18 18 18 18 18 17 18 18 19 20 20 21 22 22 22 23 23 23 23 23 24
22 20 18 16 14 13 11 10 9 8 7 7 6 5 4 3 2 2 3 4 5 6 7 8 9 9 10 11 11 12 13 14 14 15 14 14 14 14 14 15 15 16 16 17 17 18 18 19 19 18 18 18 18 18 19 20 20 21 22 22 23 23 23 24 24 24 24 24 24
21 19 17 15 14 12 11 10 9 8 7 6 5 5 4 3 2 3 4 5 6 7 8 9 10 10 11 12 12 13 13 14 14 15 15 14 14 14 15 15 16 16 17 17 18 18 19 19 19 18 18 18 19 20 20 21 22 23 23 23 24 24 24 24 25 25 25 25 24
20 18 16 15 13 12 11 10 9 8 7 6 5 4 3 3 3 4 5 6 7 8 9 10 11 11 12 12 13 14 14 14 15 15 15 15 15 15 15 15 16 17 17 18 18 19 19 19 19 18 18 19 20 21 22 22 23 23 24 24 24 25 25 25 25 25 25 25 25
19 17 16 14 13 12 11 9 8 8 7 6 5 4 4 4 4 5 6 7 8 9 10 11 11 12 12 13 13 14 15 15 15 15 14 15 15 15 15 16 16 17 18 18 19 20 20 19 19 19 19 20 21 22 22 23 23 24 24 25 25 25 25 26 26 26 25 25 24
19 17 16 14 13 12 10 9 8 7 7 6 5 5 4 5 5 6 7 8 9 10 11 11 12 12 13 13 14 14 15 15 15 15 15 15 15 15 16 16 17 17 18 19 19 19 19 18 18 19 20 21 21 22 22 22 23 24 24 25 25 26 26 26 26 26 25 25 24
18 17 15 14 13 12 10 9 8 8 7 6 5 5 5 6 6 7 8 9 10 10 11 12 12 12 13 13 14 14 14 15 15 15 15 15 15 16 16 17 17 18 19 19 20 19 17 17 18 19 20 20 21 21 22 22 23 23 24 24 25 26 26 26 26 25 25 24 24
18 17 15 14 13 11 10 9 9 8 7 6 6 6 6 7 7 8 9 10 10 11 12 12 12 13 13 13 14 14 14 14 14 15 15 16 16 17 17 18 18 19 19 20 20 19 17 17 17 18 19 20 20 21 22 22 23 23 24 24 24 25 25 26 26 25 25 24 24
18 17 15 14 13 12 11 10 9 8 7 6 6 6 7 8 8 9 10 11 11 12 12 12 13 13 13 14 14 14 14 14 14 14 15 16 17 17 18 18 19 19 20 20 20 18 18 18 18 18 18 19 20 21 21 22 23 23 24 24 24 24 24 25 25 25 25 25 25
18 16 15 14 13 12 11 10 9 8 7 6 7 7 8 8 9 10 10 11 12 12 13 13 13 13 14 14 14 14 14 14 14 14 15 16 17 17 18 19 19 20 20 20 20 19 18 18 18 18 18 18 19 20 21 22 23 23 23 24 24 24 24 24 24 25 25 26 26
17 16 15 14 13 12 11 10 9 8 7 7 7 8 8 9 10 10 11 12 12 13 13 13 13 14 14 14 14 14 14 14 14 15 15 16 17 18 18 19 20 21 21 21 20 20 19 19 18 18 19 19 19 20 21 22 23 23 23 23 23 23 24 24 25 25 26 26 26
17 16 14 13 12 11 11 9 8 7 7 8 8 9 9 10 11 11 12 12 12 13 13 13 14 14 14 14 15 15 15 15 15 15 15 16 17 18 19 20 20 21 22 22 21 20 19 19 19 19 19 19 19 20 21 22 22 23 23 23 24 24 24 25 25 25 25 25 25
17 15 14 13 12 11 10 9 8 8 8 8 9 10 11 11 11 12 12 12 13 13 13 14 14 14 15 15 15 15 15 15 15 15 16 17 18 19 20 20 21 22 22 22 21 20 19 19 19 19 20 20 20 20 21 21 22 23 23 24 24 25 25 25 25 25 25 24 24
16 15 13 12 11 10 9 9 8 8 9 9 10 11 11 12 12 12 12 13 13 13 14 14 14 15 15 15 15 15 15 15 15 16 16 17 18 19 20 21 22 22 22 22 21 20 19 19 19 20 20 20 19 20 21 21 22 23 23 24 24 25 25 25 24 24 24 24 24
16 14 13 12 11 10 9 9 9 9 10 11 12 12 12 12 12 12 13 13 13 13 14 14 15 15 15 16 16 16 16 16 16 16 16 17 18 19 21 22 22 22 22 22 21 20 20 20 20 20 20 20 20 20 21 22 22 23 24 24 24 24 24 23 23 23 23 23 23
16 14 13 11 10 10 9 9 9 10 11 12 12 13 13 13 13 13 13 13 13 14 14 15 15 16 16 16 16 16 16 16 16 17 17 18 19 20 21 22 22 22 22 21 21 20 20 20 20 20 20 20 20 20 21 22 23 23 23 24 24 23 23 23 23 23 23 23 24
15 14 13 11 10 10 10 10 10 11 12 13 13 13 13 13 13 13 13 13 14 15 15 15 16 16 16 16 16 16 16 16 17 17 17 18 19 20 22 23 23 22 22 21 21 20 20 19 19 19 19 19 20 21 21 22 23 23 23 24 24 23 23 23 23 23 24 24 24
15 14 12 11 10 10 10 11 11 12 13 14 13 13 13 13 13 13 13 14 15 15 16 16 16 16 16 16 15 15 15 16 17 17 18 19 19 21 22 23 23 23 22 21 21 20 19 19 19 19 19 19 20 21 21 22 22 23 23 24 23 23 23 23 23 24 24 25 25
15 13 12 11 11 11 11 12 13 13 14 14 13 13 13 13 14 14 14 14 15 16 16 16 16 16 16 16 15 15 16 16 17 18 19 19 20 21 22 23 23 23 22 21 21 20 19 19 19 19 19 19 20 21 21 22 22 23 23 23 23 22 22 23 23 24 25 26 26
15 13 12 11 11 11 12 13 14 14 14 14 13 13 14 14 14 15 15 15 15 16 16 17 17 16 16 16 16 16 16 17 17 18 19 20 20 21 22 23 23 23 22 21 20 19 19 18 18 18 18 19 20 20 21 22 22 23 22 22 22 22 22 23 24 25 26 26 25
14 13 12 12 12 12 13 14 14 14 14 14 14 14 14 15 15 15 15 15 16 16 17 17 17 17 16 16 16 17 17 18 18 18 19 20 20 21 21 22 23 23 22 21 20 19 18 18 17 17 18 18 19 20 21 21 22 22 22 21 22 23 23 24 24 25 25 25 25
15 14 13 13 13 13 13 14 14 14 14 14 14 15 15 15 16 16 16 16 16 16 17 17 17 17 16 16 16 17 18 19 19 19 19 20 20 21 21 22 22 22 22 20 19 18 17 17 16 17 17 18 19 19 20 21 21 21 21 21 22 23 24 24 24 24 25 25 25
15 14 14 13 13 13 13 14 14 14 14 15 15 15 15 16 16 16 17 17 17 17 17 17 17 17 16 16 17 18 19 19 20 20 20 20 21 21 21 21 22 22 21 20 19 17 16 16 16 17 17 18 18 19 19 20 20 21 22 22 23 23 24 25 25 24 24 25 25
Wind_Direction
192 191 188 184 181 179 177 175 173 172 172 175 178 186 197 206 211 217 226 236 247 260 272 279 285 289 293 296 298 301 303 305 307 309 311 313 315 316 318 319 319 320 321 322 323 324 325 326 326 326 327 328 330 332 333 333 333 331 329 328 327 325 323 319 317 316 315 313 312
190 186 183 179 179 178 174 169 167 167 171 178 188 197 205 210 212 217 226 236 248 260 272 279 285 289 293 296 298 301 304 306 308 310 312 314 316 317 318 319 321 322 323 324 324 325 326 326 327 328 328 329 331 332 333 332 331 329 328 326 325 323 320 317 316 315 314 313 312
187 183 179 176 174 174 172 169 168 171 177 186 195 200 204 206 211 217 225 236 248 261 271 279 284 289 293 296 299 301 304 306 309 310 312 313 315 317 318 320 321 323 324 325 326 326 326 327 327 328 329 329 331 332 332 331 330 328 327 324 322 320 318 316 315 315 314 313 312
184 180 177 175 174 175 175 175 176 180 186 192 195 197 199 202 208 215 225 238 251 262 271 279 284 288 292 295 299 301 304 306 309 310 312 313 315 316 318 320 322 324 325 326 326 327 327 327 328 328 329 330 331 331 331 330 328 326 324 321 319 318 315 314 314 314 313 313 312
180 177 176 175 175 176 178 181 184 187 190 192 191 192 194 199 205 213 225 240 254 265 272 278 283 287 290 294 298 301 304 306 309 310 311 313 314 316 318 320 322 324 325 326 327 327 327 327 327 328 329 330 330 330 330 328 326 324 320 318 317 315 314 313 313 313 313 313 312
175 174 173 174 175 176 177 182 186 188 188 188 187 187 189 194 200 211 227 244 257 265 272 277 281 285 289 293 297 300 303 306 308 309 311 313 314 316 318 321 323 325 326 327 327 327 327 327 327 328 328 328 329 328 327 326 324 321 318 316 315 314 313 313 313 314 314 313 312
173 172 172 175 177 178 178 181 184 184 183 183 183 184 186 190 198 213 232 247 258 266 271 276 281 285 289 293 296 299 302 305 307 309 311 313 315 317 319 321 323 325 326 326 327 327 327 327 327 328 328 328 327 327 326 324 322 319 316 315 313 313 313 313 313 314 314 313 312
172 173 174 176 178 179 180 180 180 179 178 178 179 180 184 190 201 218 236 248 258 264 271 275 281 286 290 294 296 299 302 305 307 309 311 314 316 318 320 322 324 325 326 327 327 327 327 327 327 328 328 327 326 325 324 322 320 318 316 315 313 312 312 313 313 314 314 313 312
171 173 175 176 177 178 178 177 177 176 175 175 176 178 183 192 207 224 238 248 256 264 270 276 281 286 291 295 298 301 303 306 308 311 314 316 318 321 322 323 325 326 327 327 327 327 327 327 327 328 327 327 326 324 323 321 319 317 315 314 314 312 312 312 312 313 313 312 312
172 173 174 174 175 176 175 174 174 174 173 173 173 177 185 197 214 228 239 248 258 266 271 277 283 288 293 297 301 305 308 310 312 314 316 319 321 322 324 325 326 326 327 327 328 328 328 328 328 328 328 327 325 324 322 320 318 317 315 314 313 312 311 311 312 313 314 313 314
175 175 175 174 174 174 173 172 170 170 171 171 173 179 189 204 218 230 241 251 260 266 273 279 285 291 296 301 306 310 313 315 316 318 320 321 322 324 325 325 326 326 327 327 328 328 329 329 328 328 327 326 325 323 322 320 318 316 315 313 312 312 312 312 313 315 315 315 314
176 175 175 175 173 173 172 171 169 168 169 171 174 182 193 207 220 231 242 251 257 265 274 282 290 296 303 309 314 317 318 320 320 321 322 322 323 324 324 325 325 326 326 327 328 328 329 329 329 328 327 325 324 322 321 320 318 316 314 313 312 312 312 313 315 316 317 316 315
176 175 174 173 171 170 170 169 168 167 168 171 176 184 195 207 219 229 239 247 254 264 278 289 299 308 315 320 322 324 324 324 324 324 324 324 324 323 324 324 324 324 325 326 327 328 328 329 328 327 326 324 323 322 320 319 317 315 314 313 313 313 314 315 317 318 318 317 316
175 174 172 171 169 169 168 167 166 166 168 171 177 184 194 203 213 223 233 241 251 265 285 302 314 322 326 329 330 329 329 328 327 326 325 325 324 324 323 323 323 323 324 325 325 326 328 328 328 326 325 323 322 321 319 318 316 315 314 314 314 315 316 317 319 319 319 318 317
173 172 170 168 167 167 167 166 164 165 167 170 175 182 190 196 205 216 227 238 255 276 297 315 327 332 334 334 334 332 330 329 328 327 326 325 324 323 323 322 323 323 323 323 324 325 326 327 326 325 324 322 321 319 318 317 315 314 314 314 315 316 317 318 319 319 319 318 317
171 169 168 167 166 166 165 164 163 164 165 168 172 178 184 189 199 211 224 242 268 293 311 323 329 333 335 335 333 331 329 328 327 327 326 326 325 324 323 322 322 323 323 323 323 324 325 325 325 324 322 320 319 318 317 316 315 315 315 315 315 316 317 318 318 318 318 317 315
169 167 167 166 166 165 163 162 162 162 164 166 170 175 179 185 195 209 229 257 288 306 318 323 326 329 330 330 328 326 325 325 325 326 326 326 325 324 323 322 323 323 323 323 323 324 324 324 324 323 321 319 318 317 317 316 316 316 316 316 316 316 316 317 317 317 316 315 313
167 166 166 165 164 163 161 161 161 161 163 166 169 173 178 186 194 213 246 278 295 307 315 319 321 323 323 322 320 320 320 321 323 324 325 325 324 323 322 322 322 322 322 323 323 324 324 324 323 321 320 318 317 317 317 317 317 317 316 316 316 316 316 316 316 315 314 313 311
166 165 164 163 162 161 160 160 160 161 164 167 170 174 180 188 203 229 267 287 297 304 308 312 315 315 315 314 314 314 316 318 320 322 323 323 323 322 322 322 322 322 322 323 323 324 324 323 322 321 319 319 318 318 318 318 317 317 316 315 315 315 315 315 315 314 313 311 310
166 164 163 162 161 159 159 160 161 162 164 168 172 176 182 196 220 250 274 286 292 297 302 305 308 309 308 308 309 310 312 315 318 320 321 322 322 322 322 322 322 322 322 323 324 324 323 322 321 320 320 319 319 319 319 318 317 316 315 314 314 314 314 314 314 313 312 311 310
164 163 161 160 159 159 159 160 162 164 167 171 174 180 190 208 235 260 275 282 287 292 295 299 302 303 303 304 305 306 309 312 315 317 319 320 321 321 321 322 322 322 322 323 324 324 323 322 321 321 321 320 319 319 318 317 316 315 314 313 313 313 313 313 313 312 311 310 309
163 161 160 159 159 160 161 162 164 167 170 174 179 188 201 220 245 263 274 280 284 288 292 295 297 298 299 300 302 304 307 309 312 315 317 318 319 320 321 321 322 322 323 324 325 324 323 322 322 322 321 320 318 317 316 315 314 313 312 312 311 311 312 312 312 311 310 310 309
161 160 159 159 160 162 163 165 167 171 175 180 188 200 215 234 253 265 273 278 282 286 290 293 294 295 297 298 300 302 305 307 310 312 315 316 318 319 320 321 322 323 324 325 325 325 324 323 322 320 319 317 315 314 313 312 311 311 310 310 310 310 310 310 310 310 310 309 309
160 160 160 161 162 164 166 169 172 176 181 189 199 212 228 244 257 266 272 278 283 287 290 291 292 293 294 295 297 299 302 305 308 311 313 315 317 318 320 321 322 323 324 325 325 325 323 320 317 314 313 312 311 310 309 309 309 308 308 308 309 309 309 309 309 309 309 309 309
160 160 162 163 165 167 170 174 178 183 189 198 209 223 237 250 260 268 274 280 285 288 290 291 291 292 292 293 295 297 300 304 307 310 312 314 316 318 320 321 322 323 324 325 326 324 319 312 308 307 307 307 307 307 307 307 306 307 307 307 307 308 308 308 308 308 309 309 308
161 162 163 166 168 171 174 179 184 190 197 206 217 231 244 255 263 271 278 284 287 289 290 291 291 291 291 292 294 296 299 303 307 310 312 314 316 318 319 321 322 323 324 325 325 322 315 309 306 306 306 306 306 306 306 306 306 306 306 306 307 307 307 307 308 308 308 308 308
162 164 166 168 171 175 179 183 189 195 202 212 224 238 249 258 266 275 281 286 289 291 291 291 291 290 290 292 294 296 300 303 307 310 312 314 316 317 318 320 322 323 324 325 323 319 313 310 308 307 307 306 306 306 306 306 306 306 306 306 306 306 306 307 307 308 309 309 309
164 166 168 170 174 178 182 187 193 200 208 219 232 244 254 262 270 277 282 287 290 292 293 292 291 291 291 292 295 298 301 304 307 310 313 314 315 316 317 319 321 323 324 324 322 317 314 312 310 309 308 307 307 306 306 305 305 305 306 305 305 306 306 307 307 308 309 309 309
166 168 170 174 177 181 185 191 196 203 213 226 238 249 257 265 272 278 284 289 291 293 293 292 292 292 292 294 296 299 301 304 307 310 312 313 314 315 317 319 321 322 324 323 321 319 317 315 312 310 309 308 307 306 305 305 305 305 305 305 305 306 306 307 308 308 309 309 308
168 170 173 177 180 184 188 192 199 208 220 233 243 252 260 267 273 280 286 290 292 293 293 293 293 293 293 296 298 300 302 304 308 310 312 313 314 315 317 319 320 322 323 323 322 320 318 314 311 310 309 309 308 306 305 304 304 305 305 305 306 306 307 308 308 309 309 308 307
170 173 176 180 183 186 190 195 203 215 227 237 246 254 261 268 275 282 287 291 293 294 294 293 293 293 295 296 298 299 301 304 307 309 311 312 313 315 316 318 319 321 322 323 322 320 317 313 311 309 309 309 308 306 305 304 304 304 304 305 306 306 308 308 308 308 308 308 307
173 176 179 183 186 189 193 199 209 221 232 241 249 255 262 269 277 283 288 291 293 294 294 293 293 294 295 296 297 299 301 304 306 309 311 312 313 314 315 317 318 320 321 322 321 319 315 312 310 309 309 309 308 306 304 303 303 303 304 304 305 306 307 308 308 308 308 308 306
176 179 183 186 189 193 197 205 215 226 236 244 250 256 263 271 279 285 289 292 294 294 293 293 294 294 295 296 297 299 301 304 306 308 310 312 312 313 314 315 317 319 321 321 320 317 315 312 310 309 309 309 308 306 304 303 303 304 304 305 306 307 307 308 307 307 307 306 305
179 183 186 190 193 197 203 211 221 231 239 246 252 258 265 273 281 286 291 293 294 294 294 293 293 294 294 295 297 299 301 304 306 308 309 311 312 312 313 314 316 319 320 321 319 317 315 313 311 309 309 309 307 305 304 304 305 305 306 306 307 307 307 307 307 306 306 305 305
182 186 190 193 197 202 209 217 226 234 242 248 254 261 268 276 283 289 293 295 295 294 293 293 293 293 293 294 296 298 301 303 305 306 308 310 311 311 312 314 316 318 320 320 320 318 316 313 310 309 309 308 307 305 305 305 306 306 306 306 307 306 307 307 306 306 306 305 305
185 189 193 197 202 208 215 223 231 239 245 251 257 264 271 279 286 291 294 295 295 294 293 292 292 291 292 293 296 298 300 302 304 305 307 308 310 311 312 313 315 317 319 321 321 319 316 313 310 309 309 308 306 306 306 306 306 306 306 306 305 305 306 306 306 305 306 306 305
189 193 197 202 207 214 221 228 235 242 248 254 261 268 276 282 289 293 295 295 294 293 292 291 291 291 292 294 297 298 299 300 302 303 305 307 309 311 312 313 314 316 319 321 321 320 317 314 310 309 308 307 306 306 306 306 306 305 305 304 303 304 304 305 305 305 305 305 304
192 196 201 207 213 219 226 232 239 245 251 258 265 273 280 286 290 293 295 294 293 292 291 291 290 291 293 295 297 297 297 298 299 301 304 306 309 311 312 313 314 316 319 321 321 320 317 314 311 309 307 306 305 306 306 306 305 304 303 302 302 303 304 304 304 304 304 304 303
195 199 205 212 218 224 230 237 243 249 256 263 270 276 282 287 291 294 294 294 292 290 290 289 290 291 293 295 295 295 295 296 298 300 303 306 308 310 311 312 313 315 318 320 320 319 317 314 311 308 305 304 304 304 305 305 303 302 302 302 303 303 304 304 304 303 302 302 301
198 203 210 216 223 229 235 242 249 255 261 267 273 278 283 287 290 292 293 293 291 289 288 288 289 290 292 292 293 293 294 295 297 300 302 305 308 310 311 311 312 314 317 319 319 318 317 314 311 307 304 303 303 304 304 303 302 301 302 303 304 304 305 304 303 302 300 300 300
202 207 213 220 226 233 241 248 254 260 265 270 275 280 283 287 289 291 292 291 290 288 287 287 288 289 289 289 290 291 293 295 297 299 302 305 307 309 310 310 311 313 315 318 319 318 317 314 309 305 303 303 303 304 304 303 302 302 303 304 304 304 304 304 302 301 299 299 299
Height
823 824 826 827 827 828 829 830 831 832 832 833 833 834 835 836 837 838 838 839 839 840 840 840 840 840 840 840 840 840 840 840 840 839 839 839 838 838 838 838 837 837 836 836 835 835 834 834 833 833 832 832 831 831 830 830 830 829 829 828 828 828 827 827 826 825 825 824 824
823 824 825 826 827 827 828 829 830 831 832 832 833 833 834 835 836 837 838 838 839 839 840 840 840 840 839 839 839 839 839 839 839 838 838 838 838 837 837 837 836 836 835 835 834 834 833 833 832 832 831 831 830 830 830 829 829 828 828 828 827 827 826 825 825 824 824 823 823
823 823 824 825 826 827 828 828 829 830 830 831 832 833 834 835 836 837 837 838 838 839 839 839 839 839 839 838 838 838 838 838 838 838 837 837 837 836 836 836 835 835 834 834 833 833 832 832 831 831 830 830 829 829 829 828 828 828 827 827 826 825 825 824 823 823 823 822 821
822 823 824 824 825 826 827 827 828 829 829 830 831 832 833 834 835 836 837 837 838 838 838 838 838 838 838 838 837 837 837 837 837 837 836 836 836 835 835 834 834 834 833 833 832 832 831 831 830 830 829 829 828 828 828 827 827 826 826 825 825 824 823 823 822 822 821 821 820
821 822 823 824 825 825 826 827 827 828 829 829 831 832 833 833 834 835 836 837 837 837 838 838 837 837 837 837 837 836 836 836 836 836 835 835 835 834 834 833 833 833 832 832 831 831 830 830 829 829 828 828 828 827 827 826 826 825 825 824 824 823 822 822 821 820 820 819 818
821 822 823 823 824 825 825 826 827 827 828 829 830 831 832 833 834 835 835 836 836 837 837 837 836 836 836 836 836 835 835 835 835 834 834 834 834 833 833 833 832 832 831 831 830 830 829 829 828 828 828 827 827 826 826 825 824 824 823 823 822 822 821 820 820 819 818 818 817
820 821 822 823 823 824 825 825 826 827 828 828 829 830 831 832 833 834 835 835 836 836 836 836 835 835 835 835 834 834 834 834 834 833 833 833 833 832 832 832 831 831 830 830 829 829 828 828 828 827 827 826 826 825 824 824 823 823 822 821 821 820 820 819 818 818 817 817 816
820 821 822 822 823 823 824 825 825 826 827 828 829 830 831 832 833 833 834 834 835 835 835 834 834 834 834 833 833 833 833 833 833 833 832 832 832 831 831 831 830 830 829 829 828 828 828 827 827 826 825 825 824 824 823 823 822 821 821 820 819 819 818 818 817 817 816 815 814
819 820 821 822 822 823 823 824 825 826 826 827 828 829 830 831 832 833 833 833 834 834 834 833 833 833 833 833 833 832 832 832 832 832 831 831 831 830 830 830 829 829 828 828 828 827 827 826 826 825 824 824 823 823 822 822 821 820 819 819 818 818 817 817 816 815 815 814 813
818 819 820 821 822 822 823 824 824 825 826 827 828 828 830 831 831 832 833 833 833 833 833 833 832 832 832 832 831 831 831 831 831 831 830 830 830 829 829 828 828 828 827 827 827 826 825 825 824 824 823 823 822 822 821 820 820 819 818 818 817 816 815 815 815 814 813 813 812
818 818 819 820 821 822 823 823 824 824 825 826 827 828 829 830 831 831 832 832 832 832 832 831 831 831 831 831 830 830 830 830 830 830 829 829 829 828 828 828 827 827 826 826 825 825 824 824 823 823 822 822 821 820 820 819 818 818 817 816 815 815 814 813 813 813 812 811 810
817 818 819 820 820 821 822 823 823 824 825 825 826 827 828 829 830 830 831 831 831 831 831 830 830 830 830 830 829 829 829 829 829 829 828 828 828 827 827 826 826 826 825 825 824 824 823 823 822 822 821 820 820 819 818 818 817 816 815 815 814 813 813 812 812 811 811 810 809
816 817 818 819 820 821 821 822 823 823 824 825 826 827 828 828 829 829 830 830 830 830 830 829 829 829 829 829 828 828 828 828 828 828 828 827 827 826 826 825 825 824 824 824 823 823 822 822 821 820 820 819 818 818 817 816 816 815 814 813 813 812 811 811 810 810 809 808 808
816 817 818 818 819 820 821 821 822 823 823 824 825 826 827 828 828 828 829 829 829 829 829 828 828 828 828 828 828 828 828 828 827 827 827 826 826 825 825 824 824 823 823 823 822 822 821 820 820 819 818 818 817 816 816 815 814 813 813 812 811 810 810 809 809 808 808 807 806
815 816 817 818 819 819 820 820 821 822 823 823 824 825 826 827 827 828 828 828 828 828 828 828 828 827 827 827 827 827 827 826 826 826 825 825 824 824 823 823 823 822 822 821 821 821 820 819 818 818 817 816 816 815 814 814 813 813 812 811 810 809 808 808 807 807 806 805 804
814 815 816 817 818 818 819 820 820 821 822 823 823 824 825 826 826 826 827 827 827 827 827 827 826 826 826 826 826 826 826 825 825 824 824 823 823 823 822 822 822 821 821 820 820 819 819 818 818 817 816 815 814 813 813 812 812 811 810 810 809 808 807 807 806 805 804 804 803
814 815 816 816 817 818 818 819 820 820 821 822 823 823 824 825 825 825 825 826 826 826 826 825 825 825 825 825 825 825 824 824 824 823 823 822 822 822 821 821 820 820 819 819 818 818 817 817 816 815 814 814 813 812 812 811 810 809 809 808 808 807 806 805 804 804 803 802 802
813 814 815 815 816 817 818 818 819 820 821 821 822 823 823 823 824 824 824 824 824 824 824 824 824 824 824 824 824 824 823 823 823 822 822 821 821 820 820 819 819 819 818 818 817 817 816 815 815 814 813 812 812 811 810 809 809 808 807 807 806 805 804 804 803 803 802 801 800
812 813 814 814 815 816 817 818 818 819 820 820 821 822 822 823 823 823 823 823 823 823 823 823 823 823 823 823 823 823 822 822 821 821 820 820 819 819 819 818 818 818 817 816 816 815 814 814 813 812 812 811 810 809 808 808 807 806 806 805 804 803 803 802 801 801 800 799 798
811 812 813 813 814 815 816 817 818 818 819 819 820 821 821 822 822 822 822 822 822 822 822 822 822 822 822 822 821 821 821 820 820 819 819 819 818 818 818 817 817 816 816 815 814 814 813 812 811 811 810 809 808 808 807 806 805 805 804 803 802 802 801 800 800 799 798 798 797
810 811 812 813 813 814 815 816 817 817 818 818 819 820 820 820 821 821 821 821 821 821 821 821 820 820 820 820 820 820 819 819 819 818 818 818 817 817 816 816 815 815 814 814 813 812 812 811 810 809 808 807 807 806 805 804 803 803 802 801 801 800 799 798 798 797 797 796 795
809 810 811 812 813 814 814 815 816 817 817 818 818 818 819 819 819 820 820 820 820 820 819 819 819 819 819 819 818 818 818 818 818 817 817 816 816 815 815 814 814 813 813 812 812 811 810 809 808 807 807 806 805 804 803 803 802 801 800 799 799 798 798 797 796 796 795 794 793
808 809 810 811 812 813 813 814 815 816 816 817 817 818 818 818 818 818 819 819 818 818 818 818 818 818 818 818 817 817 817 816 816 816 815 815 814 814 814 813 813 812 811 811 810 809 808 807 806 806 805 804 803 803 802 801 800 799 798 798 797 796 796 795 794 794 793 792 792
807 808 809 810 811 812 813 813 814 814 815 816 816 817 817 817 817 818 818 818 818 817 817 817 817 817 817 816 816 816 815 815 814 814 814 813 813 813 812 812 811 811 810 809 808 808 807 806 805 804 804 803 802 801 801 800 799 798 797 796 795 794 794 793 793 792 791 791 790
806 808 808 809 810 811 812 812 813 813 814 815 815 815 816 816 816 816 816 816 816 816 816 816 816 815 815 815 815 814 814 813 813 813 812 812 812 811 811 810 810 809 809 808 807 806 806 805 805 804 803 802 801 800 799 798 798 797 796 795 794 793 792 791 791 790 790 789 788
805 807 808 808 809 810 811 812 812 813 813 814 814 814 815 815 815 815 815 815 815 815 815 814 814 814 814 813 813 813 813 812 812 811 811 811 810 810 809 809 808 808 807 807 806 805 805 804 803 803 802 801 800 799 798 797 796 795 794 793 793 791 790 789 788 788 788 787 787
804 806 807 808 808 809 810 811 811 812 812 813 813 813 813 813 813 813 813 813 813 813 813 813 813 813 812 812 812 811 811 811 811 810 810 809 809 808 808 808 807 806 806 805 804 803 803 803 802 801 800 799 798 797 796 795 794 793 793 792 791 790 789 788 787 786 785 785 784
803 805 806 807 808 808 809 810 810 811 811 812 812 812 812 812 812 812 812 812 812 812 812 812 811 811 811 811 810 810 810 809 809 809 808 808 808 807 807 806 805 805 804 803 803 802 801 801 800 799 798 798 797 796 795 793 793 792 791 790 789 788 788 786 785 784 784 783 782
803 804 805 806 807 807 808 808 809 809 810 810 810 811 811 811 811 811 811 811 811 811 810 810 810 810 809 809 809 808 808 808 808 808 807 807 806 806 805 804 804 803 803 802 801 800 799 799 798 798 797 796 795 794 793 792 791 790 789 788 788 787 786 785 784 783 782 781 780
802 803 804 804 805 806 807 807 808 808 808 809 809 809 809 809 809 810 809 809 809 809 809 809 808 808 808 808 807 807 807 807 806 806 806 805 805 804 803 803 802 802 801 800 799 798 798 797 797 796 795 794 793 792 791 790 789 788 787 787 786 785 784 783 783 782 781 780 779
801 802 803 803 804 805 805 806 807 807 807 807 808 808 808 808 808 808 808 808 808 808 808 807 807 807 806 806 806 806 805 805 805 805 804 804 803 803 802 801 801 800 799 798 798 797 796 795 795 794 793 793 792 791 789 788 788 787 786 785 784 783 783 782 781 780 779 778 778
800 801 802 802 803 804 804 805 805 805 806 806 806 806 807 807 807 807 807 807 806 806 806 806 805 805 805 805 804 804 804 804 803 803 803 803 802 801 800 800 799 798 798 797 796 795 794 794 793 792 792 791 790 789 788 787 786 785 784 783 782 782 781 780 779 778 778 777 776
798 799 800 801 802 803 803 803 804 804 804 804 805 805 805 805 805 805 805 805 805 805 804 804 804 804 803 803 803 803 803 802 802 802 802 801 801 800 799 798 798 797 796 795 794 794 793 792 791 790 790 789 788 787 786 785 784 783 782 781 781 780 779 778 778 777 776 775 775
798 798 799 800 801 801 802 802 803 803 803 803 803 804 804 804 804 804 804 804 803 803 803 803 803 803 802 802 802 801 801 801 801 800 800 800 799 798 798 797 796 795 795 794 793 792 791 790 789 788 788 787 786 785 784 783 782 781 780 779 779 778 778 777 776 775 774 774 773
796 797 798 798 799 800 800 801 801 801 802 802 802 802 803 803 803 803 803 802 802 802 802 801 801 801 801 801 800 800 800 799 799 799 799 798 798 797 796 795 794 794 793 792 791 790 789 788 788 787 786 785 784 783 782 781 780 779 778 778 777 776 775 775 774 773 773 772 771
795 796 797 797 798 798 799 799 800 800 800 800 801 801 801 801 801 801 801 801 801 800 800 800 800 800 799 799 799 799 799 798 798 798 797 797 796 795 794 793 792 792 791 790 789 788 788 787 786 785 784 783 782 781 780 780 779 778 777 776 775 774 774 773 772 772 771 770 769
794 795 795 796 796 797 798 798 798 798 799 799 799 800 800 800 800 800 800 800 799 799 799 799 798 798 798 798 798 798 797 797 797 796 796 795 795 793 793 791 790 790 789 788 788 787 786 785 784 783 783 782 781 780 779 778 777 776 775 774 773 773 772 771 771 770 769 768 767
793 793 794 794 795 796 796 797 797 797 797 798 798 798 798 798 798 798 798 798 798 798 798 797 797 797 797 797 796 796 796 796 795 795 794 793 793 792 791 789 788 788 787 787 786 785 784 783 783 782 781 780 779 778 777 776 775 774 773 772 772 771 770 770 769 768 767 766 765
791 792 793 793 794 794 795 795 795 796 796 796 797 797 797 797 797 797 797 797 797 797 796 796 796 795 795 795 795 794 794 794 794 793 793 792 791 790 789 788 787 786 786 785 784 783 783 782 781 780 780 779 778 777 776 775 774 773 772 771 770 769 768 768 767 766 765 764 763
790 791 791 792 793 793 793 794 794 794 795 795 795 796 796 796 796 796 796 796 796 795 795 794 794 794 794 794 793 793 793 792 792 792 791 790 789 789 788 786 785 784 784 783 783 782 781 780 779 779 778 778 777 776 775 773 772 771 770 769 769 768 767 766 765 764 763 762 761
789 790 790 791 791 792 792 793 793 793 794 794 794 794 795 795 795 795 795 794 794 794 793 793 793 793 793 793 792 791 791 790 790 790 789 788 788 787 786 785 784 783 782 782 781 780 779 778 778 777 777 776 775 774 773 773 771 770 769 768 767 766 765 763 763 762 761 760 759